Station 45163 - Saginaw Bay Buoy, MI Image indicating link to RSS feed of recent meteorological observations for station 45163


Conditions at 45163 as of
(10:20 pm EDT on 05/29/2024)
0220 GMT on 05/30/2024:
Note: This report is more than two hours old
     

Click on the graph icon in the table below to see a time series plot of the last five days of that observation.

5-day plot - Wind Direction Wind Direction (WDIR):ENE ( 70 deg true )
5-day plot - Wind Speed Wind Speed (WSPD): 9.7 kts
5-day plot - Wind Gust Wind Gust (GST): 11.7 kts
5-day plot - Wave Height Wave Height (WVHT): 1.6 ft
5-day plot - Dominant Wave Period Dominant Wave Period (DPD): 3 sec
5-day plot - Mean Wave Direction Mean Wave Direction (MWD): NE ( 53 deg true )
5-day plot - Atmospheric Pressure Atmospheric Pressure (PRES):30.18 in
5-day plot - Air Temperature Air Temperature (ATMP): 59.4 °F
5-day plot - Wind Speed at 10 Meters Wind Speed at 10 meters (WSPD10M): 9.7 kts
5-day plot - Wind Speed at 20 Meters Wind Speed at 20 meters (WSPD20M): 11.7 kts
5-day plot -  Wind Speed, Wind Gust and Atmospheric Pressure Combined plot of Wind Speed, Gust, and Air Pressure
Previous observations
TIME
(EDT)
5-day plot - Wind Direction
WDIR
 
5-day plot - Wind Speed
WSPD
kts
5-day plot - Wind Gust
GST
kts
5-day plot - Wave Height
WVHT
ft
5-day plot - Dominant Wave Period
DPD
sec
5-day plot - Average Wave Period
APD
sec
5-day plot - Mean Wave Direction
MWD
 
5-day plot - Atmospheric Pressure
PRES
in
5-day plot - Pressure Tendency
PTDY
in
5-day plot - Air Temperature
ATMP
°F
5-day plot - Water Temperature
WTMP
°F
5-day plot - Dew Point
DEWP
°F
5-day plot - Salinity
SAL
psu
5-day plot - Visibility
VIS
nmi
5-day plot - Tide (above MLLW)
TIDE
ft
2024-05-29 10:00 pm E 9.7 11.7 1.6 3- NE30.18+0.01 58.5-----
2024-05-29 09:40 pm E 9.7 11.7 1.6 3-ENE30.19- 58.1-----
2024-05-29 09:20 pm E 11.7 13.6 1.6 3- NE30.18- 58.1-----
2024-05-29 09:00 pm E 11.7 13.6 2.0 3-ENE30.16+0.00 58.5-----
2024-05-29 08:40 pm E 11.7 15.5 2.0 3- NE30.17- 58.8-----
2024-05-29 08:20 pmENE 13.6 15.5 2.0 3- NE30.17- 58.6-----
2024-05-29 08:00 pmENE 15.5 17.5 2.3 3- NE30.16+0.00 58.5-----
2024-05-29 07:40 pmENE 13.6 17.5 2.3 3- NE30.17- 58.3-----
2024-05-29 07:20 pmENE 13.6 17.5 2.3 3- NE30.18- 58.1-----
2024-05-29 07:00 pmENE 15.5 19.4 2.3 3- NE30.16+0.00 57.6-----
2024-05-29 06:40 pmENE 15.5 19.4 2.3 3-ENE30.16- 57.7-----
2024-05-29 06:20 pmENE 17.5 19.4 2.3 3- NE30.16- 57.4-----
2024-05-29 06:00 pmENE 15.5 17.5 2.3 3- NE30.16-0.01 57.0-----
2024-05-29 05:40 pmENE 15.5 17.5 2.3 3- NE30.17- 57.0-----
2024-05-29 05:20 pmENE 13.6 15.5 2.3 3- NE30.17- 57.0-----
2024-05-29 05:00 pmENE 15.5 17.5 2.3 3- NE30.17+0.00 56.8-----
2024-05-29 04:40 pmENE 15.5 17.5 2.3 3- NE30.17- 56.8-----
2024-05-29 04:20 pmENE 13.6 15.5 2.3 3- NE30.16- 56.5-----
2024-05-29 04:00 pmENE 13.6 17.5 2.3 3- NE30.17+0.00 56.3-----
2024-05-29 03:40 pmENE 13.6 15.5 2.6 4- NE30.17- 56.1-----
2024-05-29 03:20 pmENE 13.6 15.5 2.6 4- NE30.17- 55.6-----
2024-05-29 03:00 pmENE 13.6 17.5 2.6 4- NE30.17+0.02 54.7-----
2024-05-29 02:40 pmENE 15.5 17.5 2.6 3- NE30.16- 54.7-----
2024-05-29 02:20 pmENE 15.5 19.4 2.6 4- NE30.17- 54.3-----
2024-05-29 02:00 pmENE 15.5 19.4 3.0 4- NE30.17+0.03 54.5-----
2024-05-29 01:40 pmENE 15.5 19.4 2.6 4- NE30.16- 54.5-----
2024-05-29 01:20 pmENE 17.5 21.4 2.6 4- NE30.17- 54.3-----
2024-05-29 01:00 pmENE 15.5 19.4 3.0 4- NE30.17+0.05 54.3-----
2024-05-29 12:40 pmENE 17.5 19.4 2.6 3- NE30.18- 54.3-----
2024-05-29 12:20 pm NE 17.5 19.4 3.0 4- NE30.17- 54.5-----
2024-05-29 12:00 pm NE 17.5 21.4 3.0 4- NE30.15+0.05 54.3-----
2024-05-29 11:40 am NE 19.4 21.4 3.0 4- NE30.15- 54.5-----
2024-05-29 11:20 am NE 19.4 21.4 3.3 4- NE30.14- 54.7-----
2024-05-29 11:00 am NE 21.4 25.3 3.3 4- NE30.14+0.07 54.7-----
2024-05-29 10:40 am NE 21.4 27.2 3.3 4- NE30.13- 54.9-----
2024-05-29 10:20 am NE 21.4 25.3 3.3 4- NE30.12- 55.0-----
2024-05-29 10:00 amNNE 21.4 25.3 3.3 4- NE30.12+0.06 55.0-----
2024-05-29 09:40 am NE 21.4 25.3 3.3 4- NE30.12- 54.9-----
2024-05-29 09:20 am NE 21.4 27.2 3.0 3- NE30.11- 55.0-----
2024-05-29 09:00 am NE 21.4 25.3 3.0 3- NE30.11+0.08 55.2-----
2024-05-29 08:40 am NE 21.4 25.3 3.0 3- NE30.09- 55.4-----
2024-05-29 08:20 am NE 21.4 25.3 3.0 3- NE30.08- 56.7-----
2024-05-29 08:00 am NE 21.4 25.3 2.6 3- NE30.06+0.05 56.5-----
2024-05-29 07:40 am NE 21.4 25.3 2.6 3- NE30.07- 55.9-----
2024-05-29 07:20 am NE 19.4 23.3 2.3 3- NE30.07- 57.2-----
2024-05-29 07:00 am NE 19.4 21.4 2.3 3- NE30.06+0.06 56.8-----
2024-05-29 06:40 am NE 19.4 21.4 2.0 3- NE30.04- 56.3-----
2024-05-29 06:20 amNNE 17.5 21.4 2.0 3- NE30.03- 56.1-----
2024-05-29 06:00 amNNE 17.5 21.4 1.6 3- NE30.03+0.05 56.3-----
2024-05-29 05:40 amNNE 15.5 19.4 1.3 2- NE30.01- 56.5-----
2024-05-29 05:20 amNNE 15.5 17.5 1.3 2-ENE30.01- 56.5-----
2024-05-29 05:00 am N 11.7 15.5 1.0 2- N30.01+0.04 56.3-----

Detailed Wave Summary
for 45163 as of
(10:20 pm EDT on 05/29/2024)
0220 GMT on 05/30/2024:
Note: This report is more than two hours old

These wave data are displayed in rounded times.

     

Click on the graph icon in the table below to see a time series plot of the last five days of that observation.

5-day plot - Significant Wave Height Significant Wave Height (WVHT): 1.6 ft
Previous observations
TIME
(EDT)
5-day plot - Wave Height
WVHT
ft
5-day plot - Swell Height
SwH
ft
5-day plot - Swell Period
SwP
sec
5-day plot - Swell Direction
SwD
 
5-day plot - Wind Wave Height
WWH
ft
5-day plot - Wind Wave Period
WWP
sec
5-day plot - Wind Wave Direction
WWD
 
5-day plot - Wave Steepness
STEEPNESS
 
5-day plot - Average Wave Period
APD
sec
2024-05-29 10:00 pm 1.6------ N/A-
2024-05-29 09:40 pm 1.6------ N/A-
2024-05-29 09:20 pm 1.6------ N/A-
2024-05-29 09:00 pm 2.0------ N/A-
2024-05-29 08:40 pm 2.0------ N/A-
2024-05-29 08:20 pm 2.0------ N/A-
2024-05-29 08:00 pm 2.3------ N/A-
2024-05-29 07:40 pm 2.3------ N/A-
2024-05-29 07:20 pm 2.3------ N/A-
2024-05-29 07:00 pm 2.3------ N/A-
2024-05-29 06:40 pm 2.3------ N/A-
2024-05-29 06:20 pm 2.3------ N/A-
2024-05-29 06:00 pm 2.3------ N/A-
2024-05-29 05:40 pm 2.3------ N/A-
2024-05-29 05:20 pm 2.3------ N/A-
2024-05-29 05:00 pm 2.3------ N/A-
2024-05-29 04:40 pm 2.3------ N/A-
2024-05-29 04:20 pm 2.3------ N/A-
2024-05-29 04:00 pm 2.3------ N/A-
2024-05-29 03:40 pm 2.6------ N/A-
2024-05-29 03:20 pm 2.6------ N/A-
2024-05-29 03:00 pm 2.6------VERY_STEEP-
2024-05-29 02:40 pm 2.6------VERY_STEEP-
2024-05-29 02:20 pm 2.6------ N/A-
2024-05-29 02:00 pm 3.0------VERY_STEEP-
2024-05-29 01:40 pm 2.6------VERY_STEEP-
2024-05-29 01:20 pm 2.6------VERY_STEEP-
2024-05-29 01:00 pm 3.0------VERY_STEEP-
2024-05-29 12:40 pm 2.6------VERY_STEEP-
2024-05-29 12:20 pm 3.0------VERY_STEEP-
2024-05-29 12:00 pm 3.0------VERY_STEEP-
2024-05-29 11:40 am 3.0------VERY_STEEP-
2024-05-29 11:20 am 3.3------VERY_STEEP-
2024-05-29 11:00 am 3.3------VERY_STEEP-
2024-05-29 10:40 am 3.3------VERY_STEEP-
2024-05-29 10:20 am 3.0------VERY_STEEP-
2024-05-29 10:00 am 3.3------VERY_STEEP-
2024-05-29 09:40 am 3.3------VERY_STEEP-
2024-05-29 09:20 am 3.0------VERY_STEEP-
2024-05-29 09:00 am 3.0------VERY_STEEP-
2024-05-29 08:40 am 3.0------VERY_STEEP-
2024-05-29 08:20 am 3.0------VERY_STEEP-
2024-05-29 08:00 am 2.6------VERY_STEEP-
2024-05-29 07:40 am 2.6------ N/A-
2024-05-29 07:20 am 2.3------ N/A-
2024-05-29 07:00 am 2.3------ N/A-
2024-05-29 06:40 am 2.0------ N/A-
2024-05-29 06:20 am 2.0------ N/A-
2024-05-29 06:00 am 1.6------ N/A-
2024-05-29 05:40 am 1.3------ N/A-
2024-05-29 05:20 am 1.3------ N/A-
2024-05-29 05:00 am 1.0------ N/A-

Ocean Conditions at 45163 as of
(10:20 pm EDT on 05/29/2024)
0220 GMT on 05/30/2024:
Note: This report is more than two hours old

These oceanographic data are displayed in rounded times.

     

Click on the graph icon in the table below to see a time series plot of the last five days of that observation.

Depth (DEPTH): 47.9 ft
5-day plot - Ocean Temperature Ocean Temperature (OTMP):62.78 °F
5-day plot - Oxygen Concentration Oxygen Concentration (O2PCT): 99.8%
5-day plot - Oxygen Concentration Oxygen Concentration (O2PPM): 9.62 ppm
Previous observations
TIME
(EDT)
DEPTH
ft
5-day plot - Ocean Temperature
OTMP
°F
5-day plot - Conductivity
COND
mS/cm
5-day plot - Salinity
SAL
psu
5-day plot - Oxygen Concentration
O2%
%
5-day plot - Oxygen Concentration
O2PPM
ppm
5-day plot - Chlorophyll
CLCON
ug/l
5-day plot - Turbidity
TURB
FTU
5-day plot - pH
PH
 
5-day plot - Eh
EH
mv
2024-05-29 10:00 pm 47.962.80--100.10 9.65----
2024-05-29 09:40 pm 47.962.78--100.00 9.64----
2024-05-29 09:00 pm 47.962.78--100.50 9.69----
2024-05-29 08:40 pm 47.962.78--100.40 9.68----
2024-05-29 08:20 pm 47.962.80--101.00 9.73----
2024-05-29 08:00 pm 47.962.76--100.90 9.72----
2024-05-29 07:40 pm 47.962.76--101.00 9.73----
2024-05-29 07:20 pm 47.962.76--101.30 9.76----
2024-05-29 07:00 pm 47.962.76--101.40 9.78----
2024-05-29 06:40 pm 47.962.76--101.70 9.80----
2024-05-29 06:20 pm 47.962.74--101.80 9.82----
2024-05-29 06:00 pm 47.962.73--101.90 9.83----
2024-05-29 05:40 pm 47.962.69--102.10 9.85----
2024-05-29 05:20 pm 47.962.65--102.00 9.85----
2024-05-29 05:00 pm 47.962.60--102.20 9.87----
2024-05-29 04:40 pm 47.962.51--102.50 9.91----
2024-05-29 04:20 pm 47.962.42--102.50 9.92----
2024-05-29 04:00 pm 47.962.29--102.50 9.93----
2024-05-29 03:40 pm 47.962.19--102.40 9.94----
2024-05-29 03:20 pm 47.962.06--102.20 9.93----
2024-05-29 03:00 pm 47.961.97--102.20 9.94----
2024-05-29 02:40 pm 47.961.92--102.10 9.94----
2024-05-29 02:20 pm 48.261.92--102.20 9.95----
2024-05-29 02:00 pm 48.261.93--102.20 9.94----
2024-05-29 01:40 pm 48.261.86--102.00 9.94----
2024-05-29 01:20 pm 48.261.56--101.80 9.95----
2024-05-29 01:00 pm 48.261.54--101.50 9.92----
2024-05-29 12:40 pm 48.261.43--101.60 9.95----
2024-05-29 12:20 pm 48.261.39--101.40 9.93----
2024-05-29 12:00 pm 48.261.21--101.80 9.99----
2024-05-29 11:40 am 48.261.16--101.8010.00----
2024-05-29 11:20 am 48.260.98--101.7010.01----
2024-05-29 11:00 am 48.260.96--101.7010.01----
2024-05-29 10:40 am 48.260.87--101.5010.00----
2024-05-29 10:20 am 48.260.76--101.5010.02----
2024-05-29 10:00 am 48.260.76--101.4010.00----
2024-05-29 09:40 am 48.260.76--101.4010.01----
2024-05-29 09:20 am 48.260.78--101.4010.01----
2024-05-29 09:00 am 48.260.80--101.4010.00----
2024-05-29 08:40 am 48.260.85--101.4010.00----
2024-05-29 08:20 am 48.260.91--101.40 9.99----
2024-05-29 08:00 am 48.260.91--101.5010.00----
2024-05-29 07:40 am 48.260.91--101.30 9.98----
2024-05-29 07:20 am 48.260.94--101.40 9.98----
2024-05-29 07:00 am 47.961.03--101.50 9.99----
2024-05-29 06:40 am 47.961.07--101.60 9.99----
2024-05-29 06:20 am 47.961.14--101.60 9.99----
2024-05-29 06:00 am 47.961.29--101.10 9.92----
2024-05-29 05:40 am 47.961.30--101.10 9.92----
2024-05-29 05:20 am 47.961.29--100.70 9.88----
2024-05-29 05:00 am 47.961.36--100.20 9.82----